Flag for United Kingdom Weather past 2 weeks in Belfast, Northern Ireland, United Kingdom

Now
52 °F

Scattered clouds.


Feels Like: 46 °F
Forecast: N/A
Wind: 17 mph from West

Location: Belfast / Harbour

Current Time: Dec 18, 2014 at 3:08:17 PM

Latest Report: Dec 18, 2014 at 2:20 PM


Visibility: N/A

Pressure: 29.47 "Hg

Humidity: 82%

Dew point: 46 °F

Location of BelfastLocation

Historic Weather in Belfast — Graph

°F

Belfast temperature yesterday

Maximum temperature yesterday: 54 °F (at 11:50 AM)
Minimum temperature yesterday: 52 °F (at 6:20 AM)
Average temperature yesterday: 52 °F

Past Weeks' High & Low Weather Summary

 TemperatureHumidityPressure
High55 °F (Dec 18, 9:50 AM)94% (Dec 6, 3:20 PM)30.33 "Hg (Dec 6, 3:20 PM)
Low32 °F (Dec 12, 7:20 AM)71% (Dec 4, 2:20 PM)29.24 "Hg (Dec 12, 6:20 AM)
Average42 °F86%29.80 "Hg
* Reported Dec 3 1:20 PM — Dec 18 1:50 PM, Belfast, Weather by CustomWeather, © 2014

Note: Actual official high and low records may vary slightly from our data, if they occured in-between our weather recording intervals... More about our weather records

Advertising

Belfast weather history for previous 24 hours

 ConditionsComfort  
Time TempWeatherWind HumidityBarometerVisibility
1:50 PM
Dec 18
52 °FBroken clouds.17 mph82%29.47 "HgN/A
1:20 PM52 °FBroken clouds.17 mph88%29.45 "HgN/A
12:50 PM52 °FDrizzle. Broken clouds.14 mph94%29.45 "Hg2 mi
12:20 PM55 °FDrizzle. Broken clouds.20 mph88%29.42 "Hg2 mi
11:50 AM55 °FDrizzle. Broken clouds.20 mph88%29.42 "Hg4 mi
11:20 AM55 °FDrizzle. Broken clouds.22 mph88%29.42 "HgN/A
10:20 AM55 °FDrizzle. Broken clouds.22 mph88%29.42 "HgN/A
9:50 AM55 °FScattered showers. Broken clouds.22 mph88%29.42 "HgN/A
9:20 AM54 °FDrizzle. Broken clouds.24 mph94%29.42 "HgN/A
8:50 AM54 °FDrizzle. Partly sunny.23 mph94%29.42 "Hg5 mi
8:20 AM54 °FPartly cloudy.22 mph94%29.42 "HgN/A
7:50 AM54 °FPassing clouds.23 mph94%29.42 "HgN/A
7:20 AM54 °FPassing clouds.22 mph88%29.42 "Hg4 mi
6:50 AM52 °FPassing clouds.16 mph94%29.45 "Hg4 mi
6:20 AM52 °FPassing clouds.16 mph94%29.45 "Hg2 mi
9:50 PM
Dec 17
52 °FPassing clouds.13 mph94%29.56 "HgN/A
9:20 PM52 °FPassing clouds.10 mph94%29.56 "HgN/A
8:50 PM52 °FPassing clouds.9 mph94%29.56 "HgN/A
8:20 PM52 °FPassing clouds.9 mph94%29.56 "HgN/A
7:50 PM52 °FPassing clouds.10 mph94%29.56 "HgN/A
7:20 PM52 °FPassing clouds.9 mph94%29.56 "HgN/A
6:50 PM52 °FPassing clouds.10 mph94%29.56 "HgN/A
6:20 PM52 °FPassing clouds.12 mph94%29.56 "Hg4 mi
5:50 PM52 °FPassing clouds.10 mph94%29.56 "Hg5 mi
5:20 PM52 °FPassing clouds.12 mph94%29.56 "Hg5 mi
4:50 PM52 °FPassing clouds.9 mph94%29.56 "HgN/A
4:20 PM52 °FScattered showers. Passing clouds.9 mph94%29.56 "HgN/A
3:50 PM52 °FScattered showers. Partly sunny.9 mph94%29.56 "HgN/A
3:20 PM52 °FPartly sunny.9 mph94%29.56 "HgN/A
Weather by CustomWeather, © 2014

See weather overviewHow to use our weather pages